Bodensee (Kressbronn): 6,7°C  -  Teich der Wetterzentrale Bad Schussenried: 5,6°C |  Schneehöhe Kreuzthal-Steinberg (930 m ü. NN): 8 cm   
01.04.2020Höhe
ü. NN
ZeitTemperatur (°C)Nieder-
schlag
Luft-
feuchte
Luft-
druck
Wind
StationaktuellMinimumMaximumaktuellMaximum
Aldingen654 m05:51-2,7-3,2 (07:35)-0,3 (16:02)0,0 l/m²73%1023,50,0 km/h (0 Bft) O-SO29,6 km/h (5 Bft) W (14:48)
Allmendingen541 m05:50-6,2-6,2 (07:35)-2,1 (15:10)0,0 l/m²87%1023,41,6 km/h (1 Bft) NO35,4 km/h (5 Bft) O (15:35)
Altshausen574 m05:50-3,6-3,9 (05:14)-1,1 (00:16)0,0 l/m²66%1021,14,8 km/h (1 Bft) N8,0 km/h (2 Bft) N-NO (01:07)
Amstetten-Reutti663 m05:50-4,5-4,5 (05:50)-1,5 (16:55)0,0 l/m²86%1023,03,2 km/h (1 Bft) NO48,3 km/h (6 Bft) W (15:55)
Amtzell-Grenis677 m05:50-3,8-3,8 (05:45)-1,4 (00:00)0,0 l/m²62%1022,96,4 km/h (2 Bft) W-SW6,4 km/h (2 Bft) W-SW (00:00)
Aulendorf570 m05:50-2,7-2,7 (05:47)-0,5 (00:00)0,0 l/m²71%1021,96,4 km/h (2 Bft) N-NO14,5 km/h (3 Bft) O-NO (05:13)
Bad Krozingen233 m05:50-1,8-1,8 (05:50)3,7 (16:05)0,0 l/m²77%1023,23,5 km/h (1 Bft) W-SW38,1 km/h (5 Bft) N (17:05)
Bad Saulgau595 m05:50-4,8-4,8 (06:45)-1,9 (15:00)0,0 l/m²86%1021,80,0 km/h (0 Bft) S-SO25,7 km/h (4 Bft) S (11:35)
Bad Saulgau, Mannsgrab588 m05:53-5,3-6,1 (05:34)-1,7 (00:17)0,0 l/m²87%1024,40,0 km/h (0 Bft) N-NW0,0 km/h (0 Bft) N (00:00)
Bad Saulgau-Lampertsweiler627 m05:50-4,4-4,4 (05:50)0,2 (00:00)0,0 l/m²81%1024,98,0 km/h (2 Bft) N-NW22,5 km/h (4 Bft) N-NW (01:15)
Bad Schussenried572 m05:50-3,9-3,9 (05:50)-1,1 (00:00)0,0 l/m²87%1021,30,0 km/h (0 Bft) NO9,7 km/h (2 Bft) NO (03:15)
Bergatreute615 m01:45-0,7-0,7 (00:45)0,0 (00:00)0,0 l/m²77%1023,512,9 km/h (3 Bft) NO16,1 km/h (3 Bft) O-NO (01:40)
Biberach (Riss), Boehringer533 m06:00-4,0-4,1 (06:00)-1,1 (00:30)0,0 l/m²89%1022,13,2 km/h (1 Bft) N11,9 km/h (3 Bft) N (03:00)
Biberach (Riss), Realschule553 m05:55-3,8-3,8 (05:25)-0,3 (00:00)0,0 l/m²87%1023,79,7 km/h (2 Bft) N-NW11,3 km/h (2 Bft) N-NO (03:35)
Burgrieden523 m05:50-3,7-3,7 (05:35)-0,4 (00:00)0,0 l/m²81%1022,90,0 km/h (0 Bft) NO4,8 km/h (1 Bft) O-NO (02:50)
Burgrieden-Hochstetten510 m05:50-4,3-4,3 (06:50)-0,9 (15:40)0,0 l/m²88%1023,43,2 km/h (1 Bft) N-NO25,7 km/h (4 Bft) NO (12:55)
Ebersbach579 m05:50-3,7-3,7 (05:50)-0,1 (00:00)0,0 l/m²84%1023,38,0 km/h (2 Bft) N16,1 km/h (3 Bft) NO (01:25)
Ebersbach-Boos605 m05:50-4,1-4,1 (05:45)-0,1 (00:00)0,0 l/m²87%1023,10,0 km/h (0 Bft) N-NO22,5 km/h (4 Bft) O (01:00)
Ebersbach-Menzenweiler661 m05:50-3,4-3,5 (05:50)-0,6 (00:00)0,0 l/m²86%1023,017,7 km/h (3 Bft) NO24,1 km/h (4 Bft) O-NO (01:05)
Ehingen535 m01:10-2,5-2,5 (01:10)-1,3 (00:05)0,0 l/m²70%1025,40,0 km/h (0 Bft) N-NO5,0 km/h (1 Bft) N-NO (00:15)
Erlenmoos645 m05:50-3,1-3,1 (05:45)-0,9 (00:00)0,0 l/m²86%1022,84,8 km/h (1 Bft) NO12,9 km/h (3 Bft) O-NO (01:35)
Ertingen569 m05:50-3,3-3,3 (05:40)-0,6 (00:00)0,0 l/m²84%1022,912,9 km/h (3 Bft) N16,1 km/h (3 Bft) N-NO (04:10)
Friedrichshafen405 m05:50-1,4-1,4 (06:45)0,9 (13:30)0,0 l/m²77%1022,78,0 km/h (2 Bft) NO27,4 km/h (4 Bft) NO (15:10)
Günzburg443 m05:50-4,7-4,7 (05:50)-1,1 (00:00)0,0 l/m²87%1020,90,0 km/h (0 Bft) NO0,0 km/h (0 Bft) NO (00:00)
Hochdorf-Appendorf537 m05:50-5,1-5,4 (05:45)-1,7 (00:15)0,0 l/m²67%1022,68,0 km/h (2 Bft) N-NO14,5 km/h (3 Bft) N-NW (03:20)
Höchsten802 m05:50-3,4-3,4 (05:35)-1,4 (00:00)0,0 l/m²78%1020,520,9 km/h (4 Bft) O-NO25,7 km/h (4 Bft) NO (02:45)
Horgenzell618 m05:50-1,9-1,9 (03:45)-0,6 (00:05)0,0 l/m²76%1020,24,8 km/h (1 Bft) N-NO19,3 km/h (3 Bft) N-NO (00:50)
Hoßkirch632 m05:50-6,2-6,2 (05:45)-1,0 (00:15)0,0 l/m²86%1021,83,2 km/h (1 Bft) NO14,5 km/h (3 Bft) O-NO (00:20)
Isny, Am Dreifingerbach695 m05:50-4,2-4,4 (05:00)0,1 (01:00)0,0 l/m²82%1021,60,0 km/h (0 Bft) W14,5 km/h (3 Bft) O-NO (01:05)
Isny, Weidachweg706 m05:50-3,6-3,8 (05:45)0,3 (00:25)0,0 l/m²74%1023,80,0 km/h (0 Bft) W12,9 km/h (3 Bft) W (00:10)
Kappel-Grafenhausen163 m05:45-1,1-1,1 (06:55)3,3 (14:55)0,0 l/m²76%1021,311,3 km/h (2 Bft) N-NO30,6 km/h (5 Bft) N-NO (16:55)
Kißlegg-Staibshof709 m05:50-3,0-3,0 (05:50)-0,9 (00:00)0,0 l/m²81%1022,66,4 km/h (2 Bft) NO14,5 km/h (3 Bft) O (01:50)
Kressbronn398 m05:54-1,8-1,8 (05:52)1,4 (00:00)0,0 l/m²74%1021,40,0 km/h (0 Bft) NO22,5 km/h (4 Bft) NO (00:54)
Kreuzthal-Steinberg-Alpe930 m05:50-4,1-4,8 (04:00)-2,5 (00:00)0,0 l/m²87%1023,01,4 km/h (1 Bft) N22,0 km/h (4 Bft) W-NW (00:10)
Kreuzthal-Steinberggipfel1040 m05:50-3,5-4,0 (02:20)-3,1 (00:10)-75%1023,014,8 km/h (3 Bft) O-NO37,1 km/h (5 Bft) O-SO (00:10)
Kristberg im Montafon (AT)1425 m05:50-6,5-6,6 (04:51)-5,3 (00:40)0,0 l/m²61%1026,30,0 km/h (0 Bft) O-NO10,1 km/h (2 Bft) NO (01:47)
Laupheim500 m05:50-3,4-3,4 (05:30)0,0 (00:00)0,0 l/m²82%1022,44,8 km/h (1 Bft) NO9,7 km/h (2 Bft) O-SO (00:20)
Leutkirch-Heggelbach670 m05:50-4,6-4,6 (05:40)-2,6 (00:30)0,0 l/m²87%1021,90,0 km/h (0 Bft) N8,0 km/h (2 Bft) N-NO (03:30)
Lindau-Insel420 m05:50-1,1-1,1 (07:25)1,8 (14:55)0,0 l/m²72%1021,80,0 km/h (0 Bft) O-NO29,0 km/h (5 Bft) NO (17:05)
Lindau-Stadt412 m05:50-2,0-2,0 (07:25)1,2 (14:55)0,0 l/m²76%1021,93,2 km/h (1 Bft) NO33,8 km/h (5 Bft) N-NO (15:40)
Maierhöfen im Allgäu733 m05:50-3,4-3,4 (05:50)-1,2 (01:35)0,0 l/m²75%1022,03,2 km/h (1 Bft) O-NO25,7 km/h (4 Bft) O-SO (02:05)
Maselheim543 m05:50-4,8-4,8 (06:40)-2,3 (13:20)0,0 l/m²85%1023,33,2 km/h (1 Bft) NW24,1 km/h (4 Bft) O-NO (15:20)
Maselheim-Sulmingen548 m05:50-4,7-4,9 (06:40)-2,2 (15:15)0,0 l/m²89%1024,53,2 km/h (1 Bft) N20,9 km/h (4 Bft) N-NO (12:15)
Mietingen-Baltringen528 m05:50-4,7-4,7 (05:40)-1,3 (00:45)0,0 l/m²86%1024,80,0 km/h (0 Bft) O-NO4,8 km/h (1 Bft) N-NO (01:20)
Mindelheim-Apfeltrach620 m05:51-5,4-5,4 (05:47)-2,7 (00:00)0,0 l/m²88%1024,00,0 km/h (0 Bft) NO0,0 km/h (0 Bft) O-NO (00:00)
Mittelbiberach577 m05:51-4,1-4,3 (04:39)-1,0 (00:16)0,0 l/m²83%1024,06,4 km/h (2 Bft) N11,2 km/h (2 Bft) NO (01:21)
Neresheim552 m05:00-6,2-6,2 (05:00)-2,0 (00:00)0,0 l/m²88%1022,10,0 km/h (0 Bft) O4,0 km/h (1 Bft) NO (01:00)
Neukirch570 m05:50-2,8-2,8 (06:05)-0,9 (14:35)0,0 l/m²80%1022,16,4 km/h (2 Bft) N-NO37,0 km/h (5 Bft) N-NO (11:55)
Ochsenhausen, Birkenstraße613 m05:50-5,1-5,1 (07:10)-2,2 (12:50)0,0 l/m²81%1023,40,0 km/h (0 Bft) NO3,2 km/h (1 Bft) S-SW (07:05)
Ochsenhausen, Unt. Wiesen575 m05:50-5,3-5,5 (05:35)-2,4 (00:00)0,0 l/m²88%1024,60,0 km/h (0 Bft) NO4,8 km/h (1 Bft) NO (00:00)
Opfenbach-Göritz561 m05:51-4,8-5,2 (05:22)-2,8 (00:00)0,0 l/m²76%1020,31,4 km/h (1 Bft) N-NO6,5 km/h (2 Bft) O-NO (00:18)
Ostrach619 m05:50-3,4-3,8 (04:15)-0,6 (00:00)0,0 l/m²88%1021,34,8 km/h (1 Bft) N-NW8,0 km/h (2 Bft) N-NW (04:40)
Ravensburg, Goethestraße428 m05:50-1,5-1,5 (05:50)1,3 (00:00)0,0 l/m²79%1021,914,5 km/h (3 Bft) NO14,5 km/h (3 Bft) O-NO (02:45)
Ravensburg-Wernsreute511 m05:50-2,8-2,9 (06:15)0,0 (15:50)0,0 l/m²81%1024,619,3 km/h (3 Bft) N35,4 km/h (5 Bft) N-NO (11:45)
Reichenbach an der Fils343 m05:50-1,8-1,8 (05:45)1,0 (00:00)0,0 l/m²76%1025,51,6 km/h (1 Bft) SO12,9 km/h (3 Bft) O-SO (05:10)
Riedlingen530 m05:50-2,8-2,8 (05:35)-1,0 (00:00)0,0 l/m²80%1023,10,0 km/h (0 Bft) NO0,0 km/h (0 Bft) N (00:00)
Rißtissen489 m05:50-2,9-2,9 (05:50)-0,2 (00:00)0,0 l/m²85%1020,80,0 km/h (0 Bft) O-NO8,0 km/h (2 Bft) O-NO (03:30)
Rottweil-Hausen681 m05:53-4,2-4,3 (04:46)-1,9 (00:00)0,0 l/m²82%1023,66,5 km/h (2 Bft) NW6,5 km/h (2 Bft) N (02:14)
Schemmerhofen520 m05:502,72,7 (00:00)2,7 (00:00)0,0 l/m²55%1022,00,0 km/h (0 Bft) NO0,0 km/h (0 Bft) NO (00:00)
Silbertal im Montafon (AT)884 m05:50-4,1-4,1 (05:06)-1,6 (00:01)0,0 l/m²85%1026,10,0 km/h (0 Bft) O-NO0,0 km/h (0 Bft) O-NO (00:00)
Tettnang466 m05:54-1,1-1,2 (05:49)1,0 (00:00)0,0 l/m²71%1021,811,2 km/h (2 Bft) O16,2 km/h (3 Bft) O-SO (01:07)
Tuttlingen648 m05:46-4,3-4,3 (05:41)-2,1 (00:01)0,0 l/m²75%1023,60,0 km/h (0 Bft) W-SW5,2 km/h (1 Bft) W-SW (03:26)
Tuttlingen, Möhringer-Vorstadt711 m05:50-4,1-4,2 (07:10)-2,4 (16:05)0,0 l/m²81%1022,66,4 km/h (2 Bft) O-NO25,7 km/h (4 Bft) N-NW (12:35)
Ummendorf547 m05:50-3,9-3,9 (05:50)-0,7 (00:10)0,0 l/m²67%1024,00,0 km/h (0 Bft) O-NO16,1 km/h (3 Bft) O (01:05)
Ummendorf-Fischbach558 m05:50-5,1-5,1 (05:50)-1,9 (01:25)0,0 l/m²70%1023,80,0 km/h (0 Bft) S-SO4,8 km/h (1 Bft) O (04:20)
Waldburg707 m05:50-2,9-2,9 (05:45)-0,8 (00:00)0,0 l/m²79%1021,612,9 km/h (3 Bft) N19,3 km/h (3 Bft) N (02:35)
Waltenhofen im Allgäu720 m05:50-7,0-7,2 (05:30)-2,2 (01:05)0,0 l/m²90%1022,70,0 km/h (0 Bft) N-NW17,7 km/h (3 Bft) N-NW (11:50)
Wangen, Südring548 m05:50-3,8-3,8 (05:43)-0,3 (00:00)0,0 l/m²83%1021,84,7 km/h (1 Bft) NO13,0 km/h (3 Bft) NO (01:25)
Warthausen-Birkenhard581 m05:54-4,2-4,3 (05:35)-1,2 (00:00)0,0 l/m²86%1023,48,6 km/h (2 Bft) N11,9 km/h (3 Bft) N-NO (02:49)
Winterlingen785 m05:45-5,4-5,5 (05:30)-2,8 (01:00)0,0 l/m²84%1022,71,8 km/h (1 Bft) NO3,6 km/h (1 Bft) NO (00:55)

niederschlagsdatenbank | info | login - erfassung

Sollten Sie Interesse haben, an der Niederschlagsdatenbank teilzunehmen, finden Sie > hier < weitere Informationen.
Datum: . . Kalender
Anmerkung:0,0 = nicht messbarer Niederschlag
 -  = kein Niederschlag
 k  = kumulierter Niederschlag

< 06.04.201908.04.2019 >


Niederschlagswerte vom 07.04.2019    -    derzeit 112 Stationen

Die Niederschlagswerte des gewählten Tages lassen sich durch Klicken auf das Datum sortieren.
Die Angaben sind in l/m².

Station04.04.05.04.06.04.07.04.08.04.09.04.10.04.Bemerkung 07.04.
Aichstetten Ulmenstraße 7-------
Aichstetten-Nestbaum Nestbaum---4,01,011,0-
Albbruck Furmisstr. 1810,30,3--2,02,23,8
Bewölkt mit einzelnen Wolkenlücken +12°C Kalter böiger Westwind 36 [weiterlesen...]
Allmendingen Querqueviller Ring 62,00,3-7,5-11,54,8
Regen
Amstetten-Reutti Gassenäcker 131,4--0,61,49,22,0
Regen
Aulendorf Steinenbacher Weg 33---26,04,05,01,0
Regen
Aulendorf-Blönried Heuweg 324,5--19,02,54,04,9
Bad Bellingen Rheinstraße 76-------
Bad Buchau Hanfweiher 12,0--24,02,0-14,0
Bad Saulgau Walserweg5,5--8,03,03,05,0
Regen
Bad Saulgau-Hochberg Lampertsweiler Straße 124,2--8,54,04,26,0
Bad Schussenried Konradstraße2,6--17,02,77,66,3
Regen
Bad Schussenried Lortzingstrasse3,5--16,53,07,05,8
Regen
Bad Schussenried Klosterstraße2,5--15,03,08,07,0
Regen
Bad Schussenried Theodor-Storm-Strasse3,0----26,0-
Bad Schussenried-Hopferbach Unterer Öschweg 16/14,0--15,04,09,26,5
Regen
Bad Schussenried-Lufthütte Hauptgasse 173,0--17,03,07,06,0
Bad Schussenried-Sattenbeuren Ortsstraße 7-------
Bad Schussenried-Schwaigfurt Schwaigfurt 23,0--17,02,57,05,0
Bad Waldsee-Haisterkirch Zur Spitzenkapelle 13,00,7-18,01,56,05,0
+1/+15°C, vormittags bewölkt, nachmittags freundlich, nachts Regen
Regen
Bad Wurzach-Seibranz Kimpflerhof 2 4,7--9,01,59,04,0
Baienfurt Untere Bergstrasse 78,0--18,03,03,06,0
Regen Gewitter
Balzheim Hinterm Liess 191,0------
Berg-Kleintobel Kleintobel8,2--13,81,94,02,4
Regen
Biberach Amriswilstrasse1,8--12,51,312,87,4
Regen
Biberach Strölinweg2,0--14,51,515,09,5
Regen
Biberach Erlenweg2,0--12,02,012,57,0
Regen
Biberach Neue Heimat 5-------
Biberach Mittelbergstraße 91,5------
Biberach Auf dem Lindele-------
Biberach-Bergerhausen Löcherstr.11,0--12,50,011,07,0
Regen
Bierstetten Schloßbühl 65,5--15,53,26,06,0
Regen
Blaubeuren-Pappelau Sotzenhauserstr.72,0--4,02,010,02,0
Bühlertal Wolfinstraße 1619,0---4,03,05,0
Dettingen a. d. Iller Schleifweg 42,0--14,01,022,04,0
Dornstadt-Tomerdingen Maienweg 91,5---0,910,21,2
Dürnau Dorfäckerweg 54,0--18,03,0--
Regen
Eberhardzell Lilienweg3,20,5-28,31,99,87,9
Regen
Ebersbach-Roßwälden Appenwiesen2,1----7,81,4
Am Vormittag sonnig, nachmittags bewölkt aber trocken. 3,0 bis 17, [weiterlesen...]
Ehingen Rosenstraße1,1--8,11,58,03,6
Regen
Ehingen Zanderstraße0,9--10,62,09,02,2
Regen
Ehingen Schlaufenbühl1,5--9,11,810,63,5
Regen
Ehingen Schillerstraße1,0--10,02,09,02,3
Regen
Ehingen-Herbertshofen Tobelweg 9-------
Eislingen Albstraße 1251,90,0-0,01,510,40,5
Regen
Erbach-Bach Hauptstraße 24------18,0
Erlenmoos Haldenweg 153,0--22,92,217,38,6
Regen
Füramoos Hungersberg 12,70,00,07,69,61,419,9
Gutenzell Kleinser Berg 12,5--17,00,016,05,0
Gutenzell-Hürbel Bei der Sägmühle 13,01,0-12,01,514,04,0
Regen
Herbertingen Drosselweg4,50,2-21,53,04,5-
Im Tagesverlauf immer sonniger.Erste Tropfen gegen 20 Uhr. Temperature [weiterlesen...]
Regen
Herbertingen Hirschstrasse3,5--18,04,04,56,0
Regen
Hochdorf-Schweinhausen Lindenweg 2--2,922,1---
Hohentengen-Bremen Bremer Halde 45,5--6,02,04,04,0
Regen
Horgenzell-Ringgenweiler Ringgenweiler 6207,1--12,43,02,86,2
Regen
Hüttisheim Ulmer Weg 21,0--1,51,012,05,0
Regen
Illerkirchberg Mahdauweg 201,2--0,00,311,42,7
Illerrieden-Wangen Am Muckenberg 122,0------
Immenstaad Stockwiesen 10-------
Inzigkofen Butzenweg 13,0--9,03,04,13,6
Regen
Isny Am Dreifingerbach 393,4--7,80,83,82,2
Regen
Kirchberg Rosenstr. 71,5--14,01,220,02,8
Regen
Kreuzthal-Steinberg-Alpe Im Kreuzbachthal 856,3--11,20,58,15,9
Regen Nieselregen
Langenau Wasserstr. 54-12,01,0--3,08,51,5
Langenenslingen Schattenweiler Str. 180,90,0-9,52,04,15,6
Regen Bodennebel
Leutkirch Unterer Auenweg 253,20,0-14,50,67,04,8
Regen
Leutkirch Nachtigallenweg 284,0--20,02,510,55,5
Leutkirch-Adrazhofen Bergstraße 204,00,00,017,01,07,55,5
Regen
Merklingen Millergasse 9-------
Mietingen Seerosenweg 10-------
Mietingen-Walpertshofen Bussenweg 312,0--8,02,013,04,0
Mittelbiberach-Reute Rindenmooser Straße 22,8--14,52,212,28,0
Regen
Moosburg Käserweg 52,00,0-20,02,58,57,3
Am Nachmittag mehr sonnige Abschnitte. Am frühen Abend leichter Regen [weiterlesen...]
Regen
Münsingen-Rietheim In der Lise 202,0--5,03,013,23,4
Regen
Neresheim Alfred-Delp-Straße 80,30,1--0,03,20,0
Oberdischingen Normannenstraße 7-------
Ochsenhausen Ehrensberger Weg 52,3--19,41,315,75,9
Regen
Öpfingen Hauptstraße 991,1--8,01,111,53,3
Regen
Ostrach Uhlandweg7,5--6,01,54,04,0
Regen
Pfaffenhofen-Kadeltshofen Mühlbachstraße 41,00,0--1,07,02,0
Pfullendorf Am Schweizersbild 8,1--3,10,85,35,4
Rangendingen Donaustraße 194,0--14,01,04,04,0
Regen
Ravensburg Bleicherstraße9,5--14,22,03,63,0
Ravensburg-Schmalegg St.-Magdalena-Ring 427,0--10,02,02,93,4
Ravensburg-Wernsreute Wernsreute 2510,4--13,01,62,54,2
Regen
Ravensburg-Weststadt Karl-Erb-Ring 1429,4--8,82,03,52,2
Regen
Regensburg Orleansstraße 3-------
Riedhausen Blütenweg 1310,40,40,25,82,83,05,2
Temp. +2,7°C / +15,7°C, Windböen N 17,7 km/h
Regen
Riedlingen Berliner Str. 410,9--14,51,55,04,5
Regen
Riedlingen-Neufra Panoramaweg-------
Riedlingen-Neufra Riedlinger Strasse1,40,00,015,02,06,04,5
+ 7,5 Grad, 94 % LF, endlich mit 15 l/qm ausreichender Regen, bedeckt
Schelklingen-Gundershofen Schwarzer-Straße 142,0--8,02,510,05,0
Temp. zw. -1,0°C und +27,2°C. Morgens leicht bewölkt. Mittags Sonne [weiterlesen...]
Schemmerberg Drosselweg 92,5--8,01,710,76,1
Schwörstadt Schulstrasse 1925,4----2,03,6
Seekirch Haldenberg 71,2--19,01,011,08,0
Regen Nieselregen
Sigmaringendorf Weingartenstraße 73,0--11,8--9,4
Regen
Tuttlingen Möhringerstraße 116,0--10,26,07,86,8
Regen
Ulm Eberhardtstraße 751,01,20,0-0,00,88,0
Ummendorf Tulpenweg2,2--15,51,811,37,1
Regen
Ummendorf Friedrich-Schiller-Str.1,6--12,08,011,016,0
Regen
Uttenweiler-Ahlen Seekircher Straße 81,0--14,21,59,05,5
Regen
Vöhringen (Schwarzwald) Drosselweg 36,0------
Waldburg Kastanienweg115,2--7,02,02,04,2
Wangen-Bergerhöhe Berg 28,6--6,21,82,83,0
Warthausen An der Schloßhalde -------
Warthausen Schwabenwiesen 0,7--10,80,711,34,7
Regen
Warthausen-Barabein Barabein 201,5--10,01,811,05,1
Regen
Weingarten Laurastraße7,20,1-14,01,51,45,0
+ 6,8 ° C um 6.30 Uhr
Regen Nieselregen
Weingarten Hoyerstraße-------
Weingarten Marienstraße8,0--14,52,53,04,5
Regen
Wolfegg-Veesers Veesers 1---15,02,0-9,6
Wolpertswende Aulendorfer Str. 174,00,0-15,31,83,13,6
Regen

Stillgelegte Niederschlagsstationen    -    derzeit 49 Stationen

StationLetzte Meldung04.04.05.04.06.04.07.04.08.04.09.04.10.04.Bemerkung 07.04.
Allmannsweiler Eggatsweilerstr.2802.09.2014-------
Aulendorf-Rugetsweiler Erikaweg 325.07.2013-------
Aulendorf-Zollenreute Imterstraße 1209.02.2019-------
Bad Saulgau Willi-Burth-Straße19.09.2011-------
Bad Saulgau Eichendorffweg28.03.2013-------
Bad Saulgau Seewattenstraße 12815.01.2014-------
Bad Saulgau-Lampertsweiler Valentinstr. 2618.02.2015-------
Bad Schussenried-Steinhausen Drosselgasse 4/126.09.2012-------
Bad Waldsee-Michelwinnanden Michelberg 531.12.2014-------
Bad Waldsee-Osterhofen Hochwaldgasse 406.03.2015-------
Bad Waldsee-Steinach Hofraingasse 1510.11.2013-------
Bad Wurzach-Dietmanns Postweg 519.01.2019-------
Bad Wurzach-Haidgau Wengener Straße 507.10.2012-------
Bad Wurzach-Ziegelbach Ziegelbach-Greut 507.11.2014-------
Bergatreute Bolanden 113.02.2012-------
Betzenweiler Offinger Straße 505.01.2017-------
Burgrieden Am Nonnenberg 328.10.2013-------
Burgrieden-Rot Schmiedgasse 518.09.2013-------
Eberhardzell Schillerstraße05.07.2010-------
Ehingen Am Elzengraben17.06.2016-------
Gammertingen Schillerstraße 2216.01.2016-------
Griesingen Blumenstraße 906.10.2015-------
Günzburg Erlenbadweg 34 1/231.12.2010-------
Hoßkirch Kirchstraße 805.01.2018-------
Ingoldingen-Grodt Ingoldinger Weg 1919.11.2016-------
Kisslegg Kirchmoosstraße02.05.2011-------
Krauchenwies-Hausen Rosenrain 123.11.2013-------
Kressbronn Irisstraße 410.03.2010-------
Leutkirch-Ottmannshofen Spitalriedstraße 527.07.2012-------
Leutkirch-Rotis Rotis 5/208.05.2016-------
Leutkirch-Wuchzenhofen Untere Kirchstraße 18/119.09.2016-------
Mietingen Hangweg 1530.12.2017-------
Mössingen-Bästenhardt Weissdornweg 721.07.2014-------
Ostrach Heiligenberger Straße19.08.2013-------
Pfullendorf Ringstraße 18.03.2012-------
Ravensburg Olgastraße30.10.2016-------
Seltmans Amselweg 2209.04.2013-------
Stuttgart-Bad Cannstatt Beuthener Str. 6703.02.2013-------
Stuttgart-Möhringen Glashütter Weg 1023.04.2017-------
Stuttgart-Rohr Hirschsprung 307.11.2012-------
Talheim Im Schecken 2121.08.2016-------
Tannheim Eggmannstr. 42 22.10.2017-------
Tettnang-Ramsbach Jahnstr. 24/126.03.2011-------
Tuttlingen-Möhringen Belchenstraße01.01.2015-------
Ummendorf Bergstraße23.10.2017-------
Vogt Mühlwies 1822.05.2015-------
Wangen-Atzenberg Keplerweg 324.02.2019-------
Weingarten Bischof-Sproll-Straße30.06.2011-------
Wilhelmsdorf Riedhauser Straße 28.10.2012-------
Wilhelmsdorf Seefeld20.08.2013-------
Wurmlingen An der Steig 3014.10.2016-------
Die Niederschlagswerte des gewählten Tages lassen sich durch Klicken auf das Datum sortieren.
Die Angaben sind in l/m².

Wetterbeobachtungen Legende:

  • Regen
  • Nieselregen
  • Schneeregen
  • Schnee
  • Graupel
  • Eiskörner
  • Hagel
  • Bodennebel
  • Gewitter
  • Nebelnässe
  • Schneegriesel

Grafische Darstellung der Tagesniederschläge vom 07.04.2019

< 06.04.201908.04.2019 >Monats- und Jahresniederschlag


 
wetterstationen
wetterstationen
- derzeit 83 Stationen
niederschlagsdatenbank
wetterstationen
- kartographische Darstellung
niederschlagsdatenbank
niederschlagsstationen
- derzeit 112 Stationen
niederschlagsdatenbank
niederschlagsstationen
- kartographische Darstellung
 
  treffpunkt & service
--- Anzeigen --------------------------------
zugriffe:
insgesamt: 46.623.184
aktueller monat: 373
heute: 373
momentan online: 23
 
 
monatshöchstwert: 653.625
vorheriger monat: 364.213
gestern: 13.565
tageshöchstwert: 57.073
 
wetterwarte süd
 
konradstraße 3
info@wetterwarte-sued.com
roland roth
 
88427 bad schussenried